User: anonymous   Login
Location: Unspecified
(0.0000°N, 0.0000°E)
Time: 05:05:25
(UTC+01:00)
Language:

Cosmos 1538 Rocket - Orbit

View from above orbital plane
View from above orbital plane
View from above satellite
View from above satellite

Ground track
Ground track

The orbit data is extracted from the following two-line orbital elements,

1 14760U 84019B   15063.51770538  .00000316  00000-0  11820-3 0  9996
2 14760 074.0429 214.6589 0029016 279.3783 117.9994 14.35642029623656
Epoch (UTC): 04 March 2015 12:25:29
Eccentricity: 0.0029016
inclination: 74.0429°
perigee height: 752 km
apogee height: 793 km
right ascension of ascending node: 214.6589°
argument of perigee: 279.3783°
revolutions per day: 14.35642029
mean anomaly at epoch: 117.9994°
orbit number at epoch: 62365

The dashed part of the orbit path shows where the satellite is in the earth's shadow,  

DLR